Back to catalog

CZ-4 DEB

AliveSSO
NORAD 20868·DEBRIS·🇨🇳 China

Launched Sep 3, 1990 from Taiyuan Satellite Launch Center

Loading…

Next Passes (next 24 hours)

TLE

FreshSource: Space-Track

Epoch: Sep 14, 2026, 07:09 UTC

1 20868U 90081AG  26257.29830529  .00000184  00000-0  19838-3 0  9997
2 20868  99.1256 196.3463 0169960 337.0023  22.3584 13.79522715805389

Track CZ-4 DEB in real time with AllMySat

Download on the App Store